Location: Dammartin
(48.9032°N, 1.6195°E)
Time: 19:33:24
(UTC+00:00)

BlueWalker 3 - Pass Details

Date: 16 April 2024
Orbit: 482 x 494 km, 53.2° (Epoch: 22 May)

Event Time Altitude Azimuth Distance (km) Brightness Sun altitude
Exits shadow 04:23:24 - 273° (W) 2,042 4.5 -6.5°
Reaches altitude 10° 04:24:52 10° 256° (WSW) 1,698 4.0 -6.2°
Maximum altitude 04:26:35 13° 230° (SW) 1,533 3.8 -6.0°
Drops below altitude 10° 04:28:18 10° 203° (SSW) 1,690 4.2 -5.7°
Sets 04:31:30 0° 174° (S) 2,564 5.4 -5.2°
